Location: Raleigh
(35.7720°N, 78.6390°W)
Time: 08:54:07
(UTC-04:00)

JAS-2 - Visible Passes

Search period start: 24 July 2016 00:00
Search period end: 03 August 2016 00:00
Orbit: 799 x 1322 km, 98.6° (Epoch: 23 July)

Date Brightness Start Highest point End Pass type
(mag) Time Alt. Az. Time Alt. Az. Time Alt. Az.
24 Jul 10.1 01:49:36 10° NNE 01:53:08 45° NNE 01:53:08 45° NNE visible
25 Jul 11.1 00:55:13 10° NE 00:57:19 20° ENE 00:57:19 20° ENE visible
25 Jul 10.5 02:40:09 10° N 02:43:47 30° NW 02:43:47 30° NW visible
26 Jul 10.2 01:44:31 10° NNE 01:47:58 43° NNE 01:47:58 43° NNE visible
26 Jul 11.5 03:32:59 10° NW 03:34:22 11° WNW 03:34:26 11° WNW visible
27 Jul 11.3 00:50:16 10° NE 00:52:09 18° ENE 00:52:09 18° ENE visible
27 Jul 10.5 02:34:59 10° N 02:38:37 32° NW 02:38:37 32° NW visible
28 Jul 10.3 01:39:27 10° NNE 01:42:48 40° NNE 01:42:48 40° NNE visible
28 Jul 11.4 03:27:15 10° NW 03:29:16 12° WNW 03:29:16 12° WNW visible
29 Jul 11.4 00:45:19 10° NE 00:46:59 17° ENE 00:46:59 17° ENE visible
29 Jul 10.5 02:29:49 10° N 02:33:27 34° NW 02:33:27 34° NW visible
30 Jul 10.5 01:34:22 10° NNE 01:37:38 38° NNE 01:37:38 38° NNE visible
30 Jul 11.4 03:21:44 10° NW 03:24:06 14° WNW 03:24:06 14° WNW visible
31 Jul 11.5 00:40:22 10° NE 00:41:49 16° ENE 00:41:49 16° ENE visible
31 Jul 10.5 02:24:40 10° N 02:28:17 35° NW 02:28:17 35° NW visible
01 Aug 10.6 01:29:19 10° NNE 01:32:28 35° NE 01:32:28 35° NE visible
01 Aug 11.3 03:16:18 10° NNW 03:18:57 15° WNW 03:18:57 15° WNW visible
02 Aug 11.6 00:35:27 10° NE 00:36:39 14° ENE 00:36:39 14° ENE visible
02 Aug 10.5 02:19:30 10° N 02:23:07 37° NNW 02:23:07 37° NNW visible
